Minneapolis Flying Cloud, MN

12:22 PM CST on December 06, 2019 (GMT -0600)
Flying Cloud

Weather History for KFCM - August, 2019

Change the Weather History Date:

Tuesday, August 27, 2019

  Actual Average Record
Temperature  
Mean Temperature 63 °F -  
Max Temperature 72 °F 78 °F 97 °F (2013)
Min Temperature 55 °F 58 °F 55 °F (2005)
Degree Days  
Heating Degree Days 2    
Growing Degree Days 13 (Base 50)    
Moisture  
Dew Point 52 °F    
Average Humidity 67    
Maximum Humidity 93    
Minimum Humidity 41    
Precipitation  
Precipitation 0.01 in - - ()
Sea Level Pressure  
Sea Level Pressure 29.76 in    
Wind  
Wind Speed 10 mph (West)    
Max Wind Speed 22 mph    
Max Gust Speed 38 mph    
Visibility 10 miles    
Events Rain , Thunderstorm    
Averages and records for this station are not official NWS values.
T = Trace of Precipitation, MM = Missing Value Source: NWS Daily Summary

Daily Weather History Graph

Daily Weather History Graph

Search for Another Location

Airport or City:

Astronomy

Aug. 27, 2019 Rise Set
Actual Time 6:29 AM CDT 8:00 PM CDT
Civil Twilight 5:59 AM CDT 8:30 PM CDT
Nautical Twilight 5:22 AM CDT 9:07 PM CDT
Astronomical Twilight 4:42 AM CDT 9:47 PM CDT
Moon 2:45 AM CDT (8/27) 6:30 PM CDT (8/27)
Length of Visible Light 14h 31m
Length of Day
13h 30m
Waning Crescent, 11% of the Moon is Illuminated
Aug 27
Waning Crescent
Aug 30
New
Sep 5
First Quarter
Sep 13
Full
Sep 21
Last Quarter

Hourly Weather History & Observations

Time (CDT) Temp. Dew Point Humidity Pressure Visibility Wind Dir Wind Speed Gust Speed Precip Events Conditions
12:53 AM 63.0 °F 55.9 °F 78% 29.71 in 10.0 mi Variable 5.8 mph - N/A   Clear
2:53 AM 62.1 °F 55.0 °F 78% 29.72 in 10.0 mi West 6.9 mph - N/A   Clear
3:53 AM 60.1 °F 54.0 °F 80% 29.72 in 10.0 mi SW 6.9 mph - N/A   Clear
4:53 AM 57.9 °F 55.0 °F 90% 29.72 in 10.0 mi West 4.6 mph - N/A   Clear
5:53 AM 57.0 °F 54.0 °F 89% 29.72 in 10.0 mi SW 6.9 mph - N/A   Clear
6:53 AM 55.9 °F 54.0 °F 93% 29.74 in 10.0 mi WSW 6.9 mph - N/A   Clear
7:53 AM 59.0 °F 54.0 °F 83% 29.74 in 10.0 mi WSW 8.1 mph - N/A   Clear
8:53 AM 62.1 °F 54.0 °F 75% 29.76 in 10.0 mi West 10.4 mph - N/A   Mostly Cloudy
9:53 AM 64.0 °F 55.0 °F 73% 29.77 in 10.0 mi West 9.2 mph - N/A   Clear
10:53 AM 66.0 °F 54.0 °F 65% 29.78 in 10.0 mi West 11.5 mph 18.4 mph N/A   Clear
11:53 AM 68.0 °F 54.0 °F 61% 29.77 in 10.0 mi WSW 15.0 mph 25.3 mph N/A   Clear
12:53 PM 69.1 °F 52.0 °F 54% 29.76 in 10.0 mi West 15.0 mph 28.8 mph N/A   Scattered Clouds
1:17 PM 69.1 °F 50.0 °F 51% 29.76 in 10.0 mi West 18.4 mph 32.2 mph N/A Thunderstorm Mostly Cloudy
1:40 PM 64.0 °F 51.1 °F 63% 29.77 in 10.0 mi West 13.8 mph 23.0 mph 0.00 in Thunderstorm Thunderstorm
1:53 PM 64.9 °F 50.0 °F 58% 29.78 in 8.0 mi West 20.7 mph 38.0 mph 0.00 in Rain , Thunderstorm Light Rain
2:06 PM 62.1 °F 46.9 °F 58% 29.77 in 10.0 mi WSW 13.8 mph 32.2 mph 0.01 in Rain Light Rain
2:53 PM 71.1 °F 51.1 °F 49% 29.75 in 10.0 mi West 11.5 mph 32.2 mph 0.01 in   Scattered Clouds
3:53 PM 71.1 °F 48.0 °F 44% 29.74 in 10.0 mi West 16.1 mph 29.9 mph N/A   Mostly Cloudy
4:53 PM 71.1 °F 46.0 °F 41% 29.75 in 10.0 mi WSW 21.9 mph 38.0 mph N/A   Partly Cloudy
5:53 PM 68.0 °F 48.0 °F 49% 29.77 in 10.0 mi West 15.0 mph 29.9 mph N/A   Overcast
6:53 PM 66.0 °F 50.0 °F 56% 29.78 in 10.0 mi West 19.6 mph 29.9 mph N/A   Overcast
7:53 PM 63.0 °F 50.0 °F 63% 29.79 in 10.0 mi West 9.2 mph 20.7 mph N/A   Scattered Clouds
8:53 PM 62.1 °F 51.1 °F 67% 29.81 in 10.0 mi WSW 11.5 mph 20.7 mph N/A   Mostly Cloudy
9:53 PM 61.0 °F 51.1 °F 70% 29.81 in 10.0 mi WSW 12.7 mph 23.0 mph N/A   Partly Cloudy
10:53 PM 61.0 °F 51.1 °F 70% 29.81 in 10.0 mi WSW 11.5 mph 19.6 mph N/A   Mostly Cloudy
11:53 PM 60.1 °F 53.1 °F 78% 29.81 in 10.0 mi West 9.2 mph - 0.00 in   Overcast